STARLINK-2076 (47362 NORAD) Tracking and Keplerian Element Data

This shows tracking and keplerian element data for the satellite.

Feedback or suggestion? Click here.




ElementValue
Catalog47362
NameSTARLINK-2076
Epoch Orbit1348
Epoch Day106.25002315
Epoch Year2021
RAAN170.2361
Inclination53.0562
Eccentricity0.0001181
Argument of Perigee85.3784
Mean Anonmoly260.4294
Mean Motion15.06413712
Decay Rate-0.00013297
L11 47362U 21005P 21106.25002315 -.00013297 00000-0 -87514-3 0 9990
L22 47362 53.0562 170.2361 0001181 85.3784 260.4294 15.06413712 13484

Live tracking and technical data element details for STARLINK-2076 (NORAD 47362). STARLINK-2076 can be tracked NOW for your location showing map with azimuth and elevation plus other details from your city location.

Track the satellite on the map from your city or location and see movement details for azimuth, elevation, latitude, longitude, range, height, and movement on the map or in text.







IsCatalogInMostPopularTable: catalog: 47362, numindb: 14
Update: records affected: 1



GetName: 47362 STARLINK-2076

Hit Count: updated at: Fri, 16 Apr 2021 11:24:23 GMT